Weather History for KMUO - February, 2013

Change the Weather History Date:

Thursday, February 28, 2013

  Actual Average Record
Temperature  
Mean Temperature 40 °F 38 °F  
Max Temperature 50 °F 49 °F 67 °F (1988)
Min Temperature 29 °F 26 °F 4 °F (1911)
Degree Days  
Heating Degree Days 25 27  
Month to date heating degree days 844 842  
Cooling Degree Days 0 0  
Month to date cooling degree days 0 0  
Moisture  
Dew Point 24 °F    
Average Humidity 58    
Maximum Humidity 84    
Minimum Humidity 34    
Precipitation  
Precipitation 0.00 in 0.03 in 0.42 in (2000)
Month to date precipitation 0.06  
Sea Level Pressure  
Sea Level Pressure 30.40 in    
Wind  
Wind Speed 13 mph (East)    
Max Wind Speed 20 mph    
Max Gust Speed 25 mph    
Visibility 10 miles    
Events      
T = Trace of Precipitation, MM = Missing Value Source: NWS Daily Summary

Daily Weather History Graph

Daily Weather History Graph

Search for Another Location

Airport or City:

Trip Planner

Search our weather history database for the weather conditions in past years. The results will help you decide how hot, cold, wet, or windy it might be!

Date:

Astronomy

Feb. 28, 2013 Rise Set
Actual Time 7:20 AM MST 6:31 PM MST
Civil Twilight 6:52 AM MST 7:00 PM MST
Nautical Twilight 6:19 AM MST 7:33 PM MST
Astronomical Twilight 5:46 AM MST 8:06 PM MST
Moon 10:10 PM MST (2/28) 8:26 AM MST (2/28)
Length of Visible Light 12h 08m
Length of Day
11h 11m
Waning Gibbous, 90% of the Moon is Illuminated
Feb 28
Waning Gibbous
Mar 4
Last Quarter
Mar 11
New
Mar 19
First Quarter
Mar 27
Full

Hourly Weather History & Observations

Time (MST) Temp. Windchill Dew Point Humidity Pressure Visibility Wind Dir Wind Speed Gust Speed Precip Events Conditions
12:58 AM 30.4 °F 20.5 °F 20.5 °F 67% 30.39 in 10.0 mi ESE 12.7 mph - N/A   Clear
1:58 AM 32.0 °F 20.8 °F 20.7 °F 63% 30.37 in 10.0 mi ESE 17.3 mph - N/A   Scattered Clouds
2:58 AM 29.3 °F 17.7 °F 20.5 °F 70% 30.38 in 10.0 mi ESE 16.1 mph - N/A   Scattered Clouds
3:18 AM 30.2 °F 18.9 °F 21.2 °F 69% 30.32 in 10.0 mi ESE 16.1 mph - N/A   Overcast
3:58 AM 31.5 °F 20.9 °F 20.5 °F 64% 30.37 in 10.0 mi ESE 15.0 mph - N/A   Overcast
4:18 AM 32.0 °F 20.8 °F 19.4 °F 60% 30.33 in 10.0 mi ESE 17.3 mph - N/A   Overcast
4:23 AM 32.0 °F 20.5 °F 19.4 °F 60% 30.32 in 10.0 mi ESE 18.4 mph - N/A   Overcast
4:28 AM 32.0 °F 21.6 °F 19.4 °F 60% 30.33 in 10.0 mi ESE 15.0 mph - N/A   Overcast
4:33 AM 32.0 °F 20.5 °F 19.4 °F 60% 30.34 in 10.0 mi ESE 18.4 mph - N/A   Overcast
4:38 AM 32.0 °F 20.1 °F 19.4 °F 60% 30.33 in 10.0 mi ESE 19.6 mph - N/A   Mostly Cloudy
4:48 AM 32.0 °F 21.2 °F 19.4 °F 60% 30.32 in 10.0 mi ESE 16.1 mph - N/A   Mostly Cloudy
4:58 AM 31.8 °F 20.2 °F 20.3 °F 62% 30.37 in 10.0 mi ESE 18.4 mph 25.3 mph N/A   Mostly Cloudy
5:13 AM 32.0 °F 20.8 °F 19.4 °F 60% 30.32 in 10.0 mi ESE 17.3 mph - N/A   Overcast
5:18 AM 32.0 °F 20.5 °F 19.4 °F 60% 30.33 in 10.0 mi ESE 18.4 mph - N/A   Overcast
5:23 AM 32.0 °F 20.1 °F 19.4 °F 60% 30.33 in 10.0 mi ESE 19.6 mph - N/A   Overcast
5:43 AM 32.0 °F 21.6 °F 19.4 °F 60% 30.34 in 10.0 mi ESE 15.0 mph - N/A   Overcast
5:58 AM 30.9 °F 18.7 °F 19.9 °F 64% 30.39 in 10.0 mi ESE 19.6 mph - N/A   Overcast
6:58 AM 30.6 °F 19.0 °F 20.1 °F 65% 30.41 in 10.0 mi ESE 17.3 mph - N/A   Overcast
7:26 AM 32.0 °F 21.6 °F 19.4 °F 60% 30.35 in 10.0 mi ESE 15.0 mph - N/A   Overcast
7:58 AM 30.0 °F 19.5 °F 19.9 °F 66% 30.43 in 10.0 mi ESE 13.8 mph - N/A   Overcast
8:18 AM 30.2 °F 20.2 °F 19.4 °F 64% 30.37 in 10.0 mi ESE 12.7 mph - N/A   Scattered Clouds
8:23 AM 32.0 °F 22.5 °F 21.2 °F 64% 30.37 in 10.0 mi ESE 12.7 mph - N/A   Mostly Cloudy
8:58 AM 32.0 °F 22.1 °F 21.2 °F 64% 30.46 in 10.0 mi East 13.8 mph - N/A   Mostly Cloudy
9:58 AM 37.4 °F 28.2 °F 21.2 °F 52% 30.46 in 10.0 mi ESE 16.1 mph - N/A   Mostly Cloudy
10:56 AM 41.0 °F 33.9 °F 21.2 °F 45% 30.45 in 10.0 mi ESE 12.7 mph - N/A   Scattered Clouds
11:58 AM 44.4 °F 38.6 °F 20.7 °F 39% 30.44 in 10.0 mi SE 11.5 mph - N/A   Scattered Clouds
12:16 PM 44.6 °F 40.2 °F 21.2 °F 39% 30.40 in 10.0 mi SE 8.1 mph - N/A   Mostly Cloudy
12:25 PM 46.4 °F 43.5 °F 19.4 °F 34% 30.40 in 10.0 mi ESE 5.8 mph - N/A   Mostly Cloudy
12:58 PM 46.4 °F 43.5 °F 21.2 °F 37% 30.44 in 10.0 mi East 5.8 mph - N/A   Mostly Cloudy
1:08 PM 48.2 °F - 21.2 °F 34% 30.39 in 10.0 mi ESE 8.1 mph - N/A   Mostly Cloudy
1:58 PM 48.4 °F - 23.0 °F 37% 30.42 in 10.0 mi ESE 4.6 mph - N/A   Mostly Cloudy
2:35 PM 50.0 °F - 24.8 °F 37% 30.38 in 10.0 mi WNW 3.5 mph - N/A   Overcast
2:58 PM 49.5 °F - 24.1 °F 37% 30.41 in 10.0 mi North 5.8 mph - N/A   Mostly Cloudy
3:58 PM 49.8 °F - 24.6 °F 37% 30.41 in 10.0 mi NNE 4.6 mph - N/A   Overcast
4:18 PM 50.0 °F - 30.2 °F 47% 30.37 in 10.0 mi NNE 5.8 mph - N/A   Overcast
4:48 PM 48.2 °F - 30.2 °F 50% 30.37 in 10.0 mi NNE 8.1 mph - N/A   Overcast
4:58 PM 48.2 °F - 29.7 °F 49% 30.42 in 10.0 mi NE 8.1 mph - N/A   Mostly Cloudy
5:03 PM 48.2 °F - 32.0 °F 54% 30.37 in 10.0 mi NNE 8.1 mph - N/A   Overcast
5:58 PM 46.8 °F - 32.0 °F 57% 30.44 in 10.0 mi NNE 8.1 mph - N/A   Overcast
6:58 PM 45.7 °F 42.0 °F 34.0 °F 64% 30.46 in 10.0 mi NNE 6.9 mph - N/A   Overcast
7:58 PM 44.2 °F - 35.8 °F 72% 30.48 in 10.0 mi North 2.3 mph - N/A   Overcast
8:38 PM 44.6 °F - 35.6 °F 71% 30.44 in 10.0 mi Calm Calm - N/A   Overcast
8:48 PM 42.8 °F - 35.6 °F 76% 30.44 in 10.0 mi Calm Calm - N/A   Overcast
8:58 PM 43.2 °F - 35.2 °F 74% 30.50 in 10.0 mi WSW 2.3 mph - N/A   Overcast
9:58 PM 42.6 °F - 36.0 °F 77% 30.50 in 10.0 mi WNW 2.3 mph - N/A   Overcast
10:58 PM 41.4 °F - 35.4 °F 79% 30.51 in 10.0 mi West 2.3 mph - N/A   Overcast
11:33 PM 41.0 °F 38.0 °F 35.6 °F 81% 30.48 in 10.0 mi WNW 4.6 mph - N/A   Overcast
11:58 PM 40.5 °F - 36.0 °F 84% 30.51 in 10.0 mi NNW 2.3 mph - N/A   Overcast